Flag for Nigeria Weather past 2 weeks in Port Harcourt, Nigeria

Now
77 °F

Partly cloudy.


Feels Like: 78 °F
Forecast: 75 / 85 °F
Wind: 12 mph from Southwest

Location: Malabo/Fernando Poo

Current Time: Sep 16, 2014 at 7:27:49 PM

Latest Report: Sep 16, 2014 at 7:00 PM


Visibility: 5 mi

Pressure: 29.86 "Hg

Humidity: 89%

Dew point: 73 °F

Location of Port HarcourtLocation

Historic Weather in Port Harcourt — Graph

°F

Port Harcourt temperature yesterday

Maximum temperature yesterday: 84 °F (at 11:00 AM)
Minimum temperature yesterday: 72 °F (at 7:00 AM)
Average temperature yesterday: 79 °F

Past Weeks' High & Low Weather Summary

 TemperatureHumidityPressure
High84 °F (Sep 4, 11:00 AM)100% (Sep 3, 7:00 AM)30.04 "Hg (Sep 3, 7:00 AM)
Low72 °F (Sep 3, 7:00 AM)70% (Sep 4, 10:00 AM)29.83 "Hg (Sep 5, 4:00 PM)
Average77 °F87%29.92 "Hg
* Reported Sep 1 9:00 PM — Sep 16 6:00 PM, Port Harcourt, Weather by CustomWeather, © 2014

Note: Actual official high and low records may vary slightly from our data, if they occured in-between our weather recording intervals... More about our weather records

Advertising

Port Harcourt weather history for previous 24 hours

 ConditionsComfort  
Time TempWeatherWind HumidityBarometerVisibility
6:00 PM
Sep 16
79 °FBroken clouds.9 mph89%29.89 "Hg5 mi
5:00 PM81 °FBroken clouds.9 mph84%29.89 "Hg5 mi
4:00 PM82 °FBroken clouds.12 mph79%29.92 "Hg5 mi
3:00 PM81 °FPartly sunny.9 mph84%29.92 "Hg5 mi
2:00 PM82 °FThunderstorms. Broken clouds.12 mph84%29.95 "Hg5 mi
1:00 PM82 °FThunderstorms. Broken clouds.13 mph84%29.95 "Hg5 mi
12:00 PM84 °FDrizzle. Partly sunny.12 mph79%29.95 "Hg5 mi
11:00 AM84 °FBroken clouds.6 mph79%29.95 "HgN/A
10:30 AM84 °FBroken clouds.7 mph79%29.95 "HgN/A
10:00 AM81 °FThunderstorms. Broken clouds.7 mph84%29.95 "HgN/A
9:00 AM81 °FThunderstorms. Broken clouds.6 mph84%29.92 "HgN/A
8:00 AM77 °FThunderstorms. Broken clouds.6 mph94%29.89 "HgN/A
7:00 AM77 °FThunderstorms. Broken clouds.6 mph94%29.89 "HgN/A
6:00 AM77 °FThunderstorms. Partly cloudy.6 mph94%29.89 "HgN/A
5:00 AM77 °FThunderstorms. Passing clouds.6 mph94%29.89 "HgN/A
4:00 AM77 °FThunderstorms. Passing clouds.6 mph94%29.89 "HgN/A
3:00 AM77 °FThunderstorms. Passing clouds.5 mph94%29.86 "HgN/A
2:00 AM75 °FThunderstorms. Passing clouds.6 mph94%29.89 "HgN/A
1:00 AM77 °FThunderstorms. Passing clouds.9 mph94%29.89 "HgN/A
12:00 AM77 °FThunderstorms. Passing clouds.7 mph94%29.89 "HgN/A
11:00 PM
Sep 15
77 °FThunderstorms. Passing clouds.9 mph94%29.89 "HgN/A
10:00 PM77 °FThunderstorms. Passing clouds.9 mph94%29.86 "HgN/A
9:00 PM81 °FThunderstorms. Passing clouds.9 mph79%29.89 "HgN/A
8:00 PM81 °FThunderstorms. Passing clouds.7 mph79%29.89 "HgN/A
7:30 PM82 °FThunderstorms. Passing clouds.9 mph79%29.86 "HgN/A
7:00 PM82 °FPassing clouds.9 mph79%29.86 "HgN/A
Weather by CustomWeather, © 2014

See weather overviewHow to use our weather pages